Year,Month,Day,Hour,Minute,Value (Times are PST for temperature in C)
2018,05,27,00,00,9.70
2018,05,27,00,01,9.70
2018,05,27,00,02,9.60
2018,05,27,00,03,9.60
2018,05,27,00,04,9.60
2018,05,27,00,05,9.60
2018,05,27,00,06,9.60
2018,05,27,00,07,9.60
2018,05,27,00,08,9.60
2018,05,27,00,09,9.60
2018,05,27,00,10,9.60
2018,05,27,00,11,9.50
2018,05,27,00,12,9.50
2018,05,27,00,13,9.50
2018,05,27,00,14,9.50
2018,05,27,00,15,9.50
2018,05,27,00,16,9.60
2018,05,27,00,17,9.60
2018,05,27,00,18,9.60
2018,05,27,00,19,9.60
2018,05,27,00,20,9.60
2018,05,27,00,21,9.60
2018,05,27,00,22,9.60
2018,05,27,00,23,9.60
2018,05,27,00,24,9.60
2018,05,27,00,25,9.70
2018,05,27,00,26,9.70
2018,05,27,00,27,9.70
2018,05,27,00,28,9.70
2018,05,27,00,29,9.70
2018,05,27,00,30,9.70
2018,05,27,00,31,9.70
2018,05,27,00,32,9.70
2018,05,27,00,33,9.70
2018,05,27,00,34,9.70
2018,05,27,00,35,9.70
2018,05,27,00,36,9.70
2018,05,27,00,37,9.70
2018,05,27,00,38,9.70
2018,05,27,00,39,9.70
2018,05,27,00,40,9.70
2018,05,27,00,41,9.70
2018,05,27,00,42,9.70
2018,05,27,00,43,9.60
2018,05,27,00,44,9.60
2018,05,27,00,45,9.60
2018,05,27,00,46,9.60
2018,05,27,00,47,9.60
2018,05,27,00,48,9.60
2018,05,27,00,49,9.60
2018,05,27,00,50,9.60
2018,05,27,00,51,9.60
2018,05,27,00,52,9.60
2018,05,27,00,53,9.60
2018,05,27,00,54,9.60
2018,05,27,00,55,9.60
2018,05,27,00,56,9.50
2018,05,27,00,57,9.50
2018,05,27,00,58,9.50
2018,05,27,00,59,9.50
2018,05,27,01,00,9.40
2018,05,27,01,01,9.40
2018,05,27,01,02,9.40
2018,05,27,01,03,9.40
2018,05,27,01,04,9.40
2018,05,27,01,05,9.30
2018,05,27,01,06,9.30
2018,05,27,01,07,9.30
2018,05,27,01,08,9.30
2018,05,27,01,09,9.30
2018,05,27,01,10,9.30
2018,05,27,01,11,9.30
2018,05,27,01,12,9.30
2018,05,27,01,13,9.20
2018,05,27,01,14,9.20
2018,05,27,01,15,9.20
2018,05,27,01,16,9.20
2018,05,27,01,17,9.20
2018,05,27,01,18,9.20
2018,05,27,01,19,9.10
2018,05,27,01,20,9.10
2018,05,27,01,21,9.10
2018,05,27,01,22,9.10
2018,05,27,01,23,9.10
2018,05,27,01,24,9.00
2018,05,27,01,25,9.00
2018,05,27,01,26,8.90
2018,05,27,01,27,8.90
2018,05,27,01,28,8.90
2018,05,27,01,29,8.90
2018,05,27,01,30,8.90
2018,05,27,01,31,8.80
2018,05,27,01,32,8.80
2018,05,27,01,33,8.80
2018,05,27,01,34,8.80
2018,05,27,01,35,8.80
2018,05,27,01,36,8.70
2018,05,27,01,37,8.70
2018,05,27,01,38,8.70
2018,05,27,01,39,8.70
2018,05,27,01,40,8.70
2018,05,27,01,41,8.70
2018,05,27,01,42,8.70
2018,05,27,01,43,8.60
2018,05,27,01,44,8.60
2018,05,27,01,45,8.60
2018,05,27,01,46,8.60
2018,05,27,01,47,8.50
2018,05,27,01,48,8.50
2018,05,27,01,49,8.50
2018,05,27,01,50,8.50
2018,05,27,01,51,8.40
2018,05,27,01,52,8.40
2018,05,27,01,53,8.40
2018,05,27,01,54,8.40
2018,05,27,01,55,8.40
2018,05,27,01,56,8.40
2018,05,27,01,57,8.30
2018,05,27,01,58,8.30
2018,05,27,01,59,8.30
2018,05,27,02,00,8.30
2018,05,27,02,01,8.30
2018,05,27,02,02,8.30
2018,05,27,02,03,8.30
2018,05,27,02,04,8.20
2018,05,27,02,05,8.20
2018,05,27,02,06,8.20
2018,05,27,02,07,8.20
2018,05,27,02,08,8.20
2018,05,27,02,09,8.20
2018,05,27,02,10,8.20
2018,05,27,02,11,8.20
2018,05,27,02,12,8.20
2018,05,27,02,13,8.20
2018,05,27,02,14,8.10
2018,05,27,02,15,8.10
2018,05,27,02,16,8.10
2018,05,27,02,17,8.10
2018,05,27,02,18,8.10
2018,05,27,02,19,8.10
2018,05,27,02,20,8.10
2018,05,27,02,21,8.10
2018,05,27,02,22,8.00
2018,05,27,02,23,8.00
2018,05,27,02,24,8.00
2018,05,27,02,25,8.00
2018,05,27,02,26,8.00
2018,05,27,02,27,8.00
2018,05,27,02,28,8.00
2018,05,27,02,29,8.00
2018,05,27,02,30,8.00
2018,05,27,02,31,8.00
2018,05,27,02,32,8.00
2018,05,27,02,33,8.00
2018,05,27,02,34,8.00
2018,05,27,02,35,8.00
2018,05,27,02,36,7.90
2018,05,27,02,37,8.00
2018,05,27,02,38,7.90
2018,05,27,02,39,7.90
2018,05,27,02,40,7.90
2018,05,27,02,41,7.90
2018,05,27,02,42,7.90
2018,05,27,02,43,7.90
2018,05,27,02,44,8.00
2018,05,27,02,45,8.00
2018,05,27,02,46,8.00
2018,05,27,02,47,8.00
2018,05,27,02,48,7.90
2018,05,27,02,49,7.90
2018,05,27,02,50,7.90
2018,05,27,02,51,7.90
2018,05,27,02,52,7.90
2018,05,27,02,53,7.90
2018,05,27,02,54,7.90
2018,05,27,02,55,7.90
2018,05,27,02,56,7.90
2018,05,27,02,57,7.90
2018,05,27,02,58,7.90
2018,05,27,02,59,7.90
2018,05,27,03,00,7.90
2018,05,27,03,01,7.80
2018,05,27,03,02,7.90
2018,05,27,03,03,7.80
2018,05,27,03,04,7.80
2018,05,27,03,05,7.80
2018,05,27,03,06,7.80
2018,05,27,03,07,7.80
2018,05,27,03,08,7.80
2018,05,27,03,09,7.80
2018,05,27,03,10,7.80
2018,05,27,03,11,7.80
2018,05,27,03,12,7.80
2018,05,27,03,13,7.80
2018,05,27,03,14,7.80
2018,05,27,03,15,7.80
2018,05,27,03,16,7.80
2018,05,27,03,17,7.80
2018,05,27,03,18,7.80
2018,05,27,03,19,7.80
2018,05,27,03,20,7.80
2018,05,27,03,21,7.80
2018,05,27,03,22,7.80
2018,05,27,03,23,7.80
2018,05,27,03,24,7.80
2018,05,27,03,25,7.80
2018,05,27,03,26,7.80
2018,05,27,03,27,7.80
2018,05,27,03,28,7.80
2018,05,27,03,29,7.80
2018,05,27,03,30,7.80
2018,05,27,03,31,7.80
2018,05,27,03,32,7.80
2018,05,27,03,33,7.80
2018,05,27,03,34,7.80
2018,05,27,03,35,7.80
2018,05,27,03,36,7.80
2018,05,27,03,37,7.80
2018,05,27,03,38,7.80
2018,05,27,03,39,7.80
2018,05,27,03,40,7.80
2018,05,27,03,41,7.80
2018,05,27,03,42,7.80
2018,05,27,03,43,7.80
2018,05,27,03,44,7.80
2018,05,27,03,45,7.80
2018,05,27,03,46,7.80
2018,05,27,03,47,7.80
2018,05,27,03,48,7.80
2018,05,27,03,49,7.80
2018,05,27,03,50,7.80
2018,05,27,03,51,7.80
2018,05,27,03,52,7.80
2018,05,27,03,53,7.80
2018,05,27,03,54,7.80
2018,05,27,03,55,7.80
2018,05,27,03,56,7.70
2018,05,27,03,57,7.70
2018,05,27,03,58,7.70
2018,05,27,03,59,7.70
2018,05,27,04,00,7.70
2018,05,27,04,01,7.70
2018,05,27,04,02,7.70
2018,05,27,04,03,7.70
2018,05,27,04,04,7.70
2018,05,27,04,05,7.70
2018,05,27,04,06,7.70
2018,05,27,04,07,7.60
2018,05,27,04,08,7.60
2018,05,27,04,09,7.60
2018,05,27,04,10,7.60
2018,05,27,04,11,7.60
2018,05,27,04,12,7.60
2018,05,27,04,13,7.60
2018,05,27,04,14,7.60
2018,05,27,04,15,7.60
2018,05,27,04,16,7.60
2018,05,27,04,17,7.60
2018,05,27,04,18,7.60
2018,05,27,04,19,7.60
2018,05,27,04,20,7.60
2018,05,27,04,21,7.60
2018,05,27,04,22,7.60
2018,05,27,04,23,7.60
2018,05,27,04,24,7.60
2018,05,27,04,25,7.60
2018,05,27,04,26,7.70
2018,05,27,04,27,7.70
2018,05,27,04,28,7.70
2018,05,27,04,29,7.70
2018,05,27,04,30,7.70
2018,05,27,04,31,7.70
2018,05,27,04,32,7.70
2018,05,27,04,33,7.70
2018,05,27,04,34,7.70
2018,05,27,04,35,7.70
2018,05,27,04,36,7.80
2018,05,27,04,37,7.80
2018,05,27,04,38,7.80
2018,05,27,04,39,7.80
2018,05,27,04,40,7.80
2018,05,27,04,41,7.80
2018,05,27,04,42,7.80
2018,05,27,04,43,7.80
2018,05,27,04,44,7.80
2018,05,27,04,45,7.80
2018,05,27,04,46,7.80
2018,05,27,04,47,7.80
2018,05,27,04,48,7.80
2018,05,27,04,49,7.80
2018,05,27,04,50,7.80
2018,05,27,04,51,7.80
2018,05,27,04,52,7.80
2018,05,27,04,53,7.80
2018,05,27,04,54,7.80
2018,05,27,04,55,7.80
2018,05,27,04,56,7.80
2018,05,27,04,57,7.80
2018,05,27,04,58,7.80
2018,05,27,04,59,7.80
2018,05,27,05,00,7.80
2018,05,27,05,01,7.80
2018,05,27,05,02,7.80
2018,05,27,05,03,7.80
2018,05,27,05,04,7.80
2018,05,27,05,05,7.80
2018,05,27,05,06,7.80
2018,05,27,05,07,7.80
2018,05,27,05,08,7.80
2018,05,27,05,09,7.80
2018,05,27,05,10,7.80
2018,05,27,05,11,7.80
2018,05,27,05,12,7.80
2018,05,27,05,13,7.80
2018,05,27,05,14,7.90
2018,05,27,05,15,7.90
2018,05,27,05,16,7.90
2018,05,27,05,17,7.90
2018,05,27,05,18,7.90
2018,05,27,05,19,7.90
2018,05,27,05,20,7.90
2018,05,27,05,21,7.90
2018,05,27,05,22,7.90
2018,05,27,05,23,8.00
2018,05,27,05,24,8.00
2018,05,27,05,25,8.00
2018,05,27,05,26,8.00
2018,05,27,05,27,8.00
2018,05,27,05,28,8.00
2018,05,27,05,29,8.00
2018,05,27,05,30,8.00
2018,05,27,05,31,8.00
2018,05,27,05,32,8.00
2018,05,27,05,33,8.00
2018,05,27,05,34,8.00
2018,05,27,05,35,8.00
2018,05,27,05,36,8.00
2018,05,27,05,37,8.00
2018,05,27,05,38,8.00
2018,05,27,05,39,8.00
2018,05,27,05,40,8.00
2018,05,27,05,41,8.00
2018,05,27,05,42,8.00
2018,05,27,05,43,8.00
2018,05,27,05,44,8.00
2018,05,27,05,45,8.00
2018,05,27,05,46,8.00
2018,05,27,05,47,8.00
2018,05,27,05,48,8.00
2018,05,27,05,49,8.00
2018,05,27,05,50,8.00
2018,05,27,05,51,8.00
2018,05,27,05,52,8.10
2018,05,27,05,53,8.10
2018,05,27,05,54,8.10
2018,05,27,05,55,8.10
2018,05,27,05,56,8.10
2018,05,27,05,57,8.10
2018,05,27,05,58,8.10
2018,05,27,05,59,8.20
2018,05,27,06,00,8.20
2018,05,27,06,01,8.20
2018,05,27,06,02,8.20
2018,05,27,06,03,8.20
2018,05,27,06,04,8.20
2018,05,27,06,05,8.20
2018,05,27,06,06,8.30
2018,05,27,06,07,8.30
2018,05,27,06,08,8.30
2018,05,27,06,09,8.30
2018,05,27,06,10,8.30
2018,05,27,06,11,8.30
2018,05,27,06,12,8.30
2018,05,27,06,13,8.30
2018,05,27,06,14,8.40
2018,05,27,06,15,8.40
2018,05,27,06,16,8.40
2018,05,27,06,17,8.40
2018,05,27,06,18,8.40
2018,05,27,06,19,8.40
2018,05,27,06,20,8.40
2018,05,27,06,21,8.50
2018,05,27,06,22,8.50
2018,05,27,06,23,8.50
2018,05,27,06,24,8.50
2018,05,27,06,25,8.60
2018,05,27,06,26,8.60
2018,05,27,06,27,8.60
2018,05,27,06,28,8.60
2018,05,27,06,29,8.60
2018,05,27,06,30,8.60
2018,05,27,06,31,8.60
2018,05,27,06,32,8.70
2018,05,27,06,33,8.70
2018,05,27,06,34,8.70
2018,05,27,06,35,8.70
2018,05,27,06,36,8.70
2018,05,27,06,37,8.80
2018,05,27,06,38,8.80
2018,05,27,06,39,8.80
2018,05,27,06,40,8.80
2018,05,27,06,41,8.80
2018,05,27,06,42,8.80
2018,05,27,06,43,8.80
2018,05,27,06,44,8.80
2018,05,27,06,45,8.80
2018,05,27,06,46,8.80
2018,05,27,06,47,8.80
2018,05,27,06,48,8.80
2018,05,27,06,49,8.80
2018,05,27,06,50,8.80
2018,05,27,06,51,8.80
2018,05,27,06,52,8.80
2018,05,27,06,53,8.80
2018,05,27,06,54,8.80
2018,05,27,06,55,8.90
2018,05,27,06,56,8.90
2018,05,27,06,57,8.90
2018,05,27,06,58,8.90
2018,05,27,06,59,8.90
2018,05,27,07,00,8.90
2018,05,27,07,01,8.90
2018,05,27,07,02,8.90
2018,05,27,07,03,8.90
2018,05,27,07,04,8.90
2018,05,27,07,05,8.90
2018,05,27,07,06,8.90
2018,05,27,07,07,8.90
2018,05,27,07,08,8.90
2018,05,27,07,09,9.00
2018,05,27,07,10,9.00
2018,05,27,07,11,9.00
2018,05,27,07,12,9.00
2018,05,27,07,13,9.10
2018,05,27,07,14,9.10
2018,05,27,07,15,9.20
2018,05,27,07,16,9.30
2018,05,27,07,17,9.40
2018,05,27,07,18,9.50
2018,05,27,07,19,9.60
2018,05,27,07,20,9.70
2018,05,27,07,21,9.80
2018,05,27,07,22,9.90
2018,05,27,07,23,10.10
2018,05,27,07,24,10.20
2018,05,27,07,25,10.30
2018,05,27,07,26,10.40
2018,05,27,07,27,10.50
2018,05,27,07,28,10.50
2018,05,27,07,29,10.60
2018,05,27,07,30,10.70
2018,05,27,07,31,10.70
2018,05,27,07,32,10.80
2018,05,27,07,33,10.90
2018,05,27,07,34,11.00
2018,05,27,07,35,11.00
2018,05,27,07,36,11.10
2018,05,27,07,37,11.20
2018,05,27,07,38,11.30
2018,05,27,07,39,11.40
2018,05,27,07,40,11.50
2018,05,27,07,41,11.60
2018,05,27,07,42,11.70
2018,05,27,07,43,11.70
2018,05,27,07,44,11.80
2018,05,27,07,45,11.90
2018,05,27,07,46,12.00
2018,05,27,07,47,12.00
2018,05,27,07,48,12.10
2018,05,27,07,49,12.20
2018,05,27,07,50,12.30
2018,05,27,07,51,12.40
2018,05,27,07,52,12.40
2018,05,27,07,53,12.60
2018,05,27,07,54,12.70
2018,05,27,07,55,12.90
2018,05,27,07,56,13.00
2018,05,27,07,57,13.10
2018,05,27,07,58,13.30
2018,05,27,07,59,13.40
2018,05,27,08,00,13.60
2018,05,27,08,01,13.70
2018,05,27,08,02,13.80
2018,05,27,08,03,13.90
2018,05,27,08,04,14.00
2018,05,27,08,05,14.10
2018,05,27,08,06,14.20
2018,05,27,08,07,14.30
2018,05,27,08,08,14.30
2018,05,27,08,09,14.40
2018,05,27,08,10,14.40
2018,05,27,08,11,14.40
2018,05,27,08,12,14.30
2018,05,27,08,13,14.40
2018,05,27,08,14,14.40
2018,05,27,08,15,14.40
2018,05,27,08,16,14.50
2018,05,27,08,17,14.50
2018,05,27,08,18,14.50
2018,05,27,08,19,14.60
2018,05,27,08,20,14.70
2018,05,27,08,21,14.70
2018,05,27,08,22,14.70
2018,05,27,08,23,14.80
2018,05,27,08,24,14.70
2018,05,27,08,25,14.80
2018,05,27,08,26,14.80
2018,05,27,08,27,14.80
2018,05,27,08,28,14.80
2018,05,27,08,29,14.80
2018,05,27,08,30,14.90
2018,05,27,08,31,14.90
2018,05,27,08,32,15.00
2018,05,27,08,33,15.00
2018,05,27,08,34,15.10
2018,05,27,08,35,15.10
2018,05,27,08,36,15.20
2018,05,27,08,37,15.20
2018,05,27,08,38,15.10
2018,05,27,08,39,15.10
2018,05,27,08,40,15.20
2018,05,27,08,41,15.20
2018,05,27,08,42,15.30
2018,05,27,08,43,15.40
2018,05,27,08,44,15.50
2018,05,27,08,45,15.50
2018,05,27,08,46,15.40
2018,05,27,08,47,15.40
2018,05,27,08,48,15.40
2018,05,27,08,49,15.50
2018,05,27,08,50,15.60
2018,05,27,08,51,15.60
2018,05,27,08,52,15.60
2018,05,27,08,53,15.70
2018,05,27,08,54,15.70
2018,05,27,08,55,15.70
2018,05,27,08,56,15.70
2018,05,27,08,57,15.80
2018,05,27,08,58,15.80
2018,05,27,08,59,15.80
2018,05,27,09,00,15.80
2018,05,27,09,01,15.80
2018,05,27,09,02,15.80
2018,05,27,09,03,15.80
2018,05,27,09,04,15.80
2018,05,27,09,05,15.80
2018,05,27,09,06,15.90
2018,05,27,09,07,15.90
2018,05,27,09,08,15.90
2018,05,27,09,09,15.90
2018,05,27,09,10,15.90
2018,05,27,09,11,16.00
2018,05,27,09,12,16.10
2018,05,27,09,13,16.20
2018,05,27,09,14,16.30
2018,05,27,09,15,16.40
2018,05,27,09,16,16.40
2018,05,27,09,17,16.50
2018,05,27,09,18,16.50
2018,05,27,09,19,16.60
2018,05,27,09,20,16.60
2018,05,27,09,21,16.70
2018,05,27,09,22,16.70
2018,05,27,09,23,16.60
2018,05,27,09,24,16.50
2018,05,27,09,25,16.40
2018,05,27,09,26,16.40
2018,05,27,09,27,16.40
2018,05,27,09,28,16.40
2018,05,27,09,29,16.50
2018,05,27,09,30,16.50
2018,05,27,09,31,16.50
2018,05,27,09,32,16.40
2018,05,27,09,33,16.40
2018,05,27,09,34,16.40
2018,05,27,09,35,16.30
2018,05,27,09,36,16.30
2018,05,27,09,37,16.30
2018,05,27,09,38,16.30
2018,05,27,09,39,16.40
2018,05,27,09,40,16.50
2018,05,27,09,41,16.50
2018,05,27,09,42,16.60
2018,05,27,09,43,16.60
2018,05,27,09,44,16.70
2018,05,27,09,45,16.70
2018,05,27,09,46,16.80
2018,05,27,09,47,16.80
2018,05,27,09,48,16.70
2018,05,27,09,49,16.70
2018,05,27,09,50,16.70
2018,05,27,09,51,16.70
2018,05,27,09,52,16.70
2018,05,27,09,53,16.80
2018,05,27,09,54,16.80
2018,05,27,09,55,16.90
2018,05,27,09,56,17.10
2018,05,27,09,57,17.10
2018,05,27,09,58,17.10
2018,05,27,09,59,17.00
2018,05,27,10,00,16.90
2018,05,27,10,01,16.90
2018,05,27,10,02,16.90
2018,05,27,10,03,16.90
2018,05,27,10,04,16.80
2018,05,27,10,05,16.90
2018,05,27,10,06,16.90
2018,05,27,10,07,16.90
2018,05,27,10,08,16.90
2018,05,27,10,09,16.90
2018,05,27,10,10,16.90
2018,05,27,10,11,16.90
2018,05,27,10,12,16.90
2018,05,27,10,13,17.00
2018,05,27,10,14,17.10
2018,05,27,10,15,17.20
2018,05,27,10,16,17.30
2018,05,27,10,17,17.40
2018,05,27,10,18,17.60
2018,05,27,10,19,17.70
2018,05,27,10,20,17.80
2018,05,27,10,21,17.90
2018,05,27,10,22,17.90
2018,05,27,10,23,17.90
2018,05,27,10,24,17.80
2018,05,27,10,25,17.70
2018,05,27,10,26,17.70
2018,05,27,10,27,17.70
2018,05,27,10,28,17.70
2018,05,27,10,29,17.70
2018,05,27,10,30,17.60
2018,05,27,10,31,17.50
2018,05,27,10,32,17.50
2018,05,27,10,33,17.40
2018,05,27,10,34,17.30
2018,05,27,10,35,17.20
2018,05,27,10,36,17.20
2018,05,27,10,37,17.20
2018,05,27,10,38,17.30
2018,05,27,10,39,17.30
2018,05,27,10,40,17.30
2018,05,27,10,41,17.30
2018,05,27,10,42,17.30
2018,05,27,10,43,17.30
2018,05,27,10,44,17.30
2018,05,27,10,45,17.40
2018,05,27,10,46,17.40
2018,05,27,10,47,17.30
2018,05,27,10,48,17.30
2018,05,27,10,49,17.30
2018,05,27,10,50,17.30
2018,05,27,10,51,17.30
2018,05,27,10,52,17.30
2018,05,27,10,53,17.40
2018,05,27,10,54,17.40
2018,05,27,10,55,17.50
2018,05,27,10,56,17.50
2018,05,27,10,57,17.60
2018,05,27,10,58,17.70
2018,05,27,10,59,17.80
2018,05,27,11,00,17.80
2018,05,27,11,01,17.90
2018,05,27,11,02,17.90
2018,05,27,11,03,17.90
2018,05,27,11,04,17.80
2018,05,27,11,05,17.80
2018,05,27,11,06,17.80
2018,05,27,11,07,17.80
2018,05,27,11,08,17.80
2018,05,27,11,09,17.80
2018,05,27,11,10,17.80
2018,05,27,11,11,17.90
2018,05,27,11,12,18.00
2018,05,27,11,13,18.00
2018,05,27,11,14,18.10
2018,05,27,11,15,18.10
2018,05,27,11,16,18.10
2018,05,27,11,17,18.00
2018,05,27,11,18,18.00
2018,05,27,11,19,17.90
2018,05,27,11,20,17.80
2018,05,27,11,21,17.70
2018,05,27,11,22,17.60
2018,05,27,11,23,17.60
2018,05,27,11,24,17.60
2018,05,27,11,25,17.60
2018,05,27,11,26,17.60
2018,05,27,11,27,17.60
2018,05,27,11,28,17.70
2018,05,27,11,29,17.80
2018,05,27,11,30,18.00
2018,05,27,11,31,18.20
2018,05,27,11,32,18.30
2018,05,27,11,33,18.40
2018,05,27,11,34,18.40
2018,05,27,11,35,18.40
2018,05,27,11,36,18.30
2018,05,27,11,37,18.30
2018,05,27,11,38,18.30
2018,05,27,11,39,18.30
2018,05,27,11,40,18.30
2018,05,27,11,41,18.40
2018,05,27,11,42,18.40
2018,05,27,11,43,18.30
2018,05,27,11,44,18.30
2018,05,27,11,45,18.30
2018,05,27,11,46,18.30
2018,05,27,11,47,18.40
2018,05,27,11,48,18.40
2018,05,27,11,49,18.40
2018,05,27,11,50,18.30
2018,05,27,11,51,18.30
2018,05,27,11,52,18.30
2018,05,27,11,53,18.30
2018,05,27,11,54,18.30
2018,05,27,11,55,18.30
2018,05,27,11,56,18.30
2018,05,27,11,57,18.30
2018,05,27,11,58,18.40
2018,05,27,11,59,18.50
2018,05,27,12,00,18.50
2018,05,27,12,01,18.50
2018,05,27,12,02,18.50
2018,05,27,12,03,18.60
2018,05,27,12,04,18.70
2018,05,27,12,05,18.80
2018,05,27,12,06,18.80
2018,05,27,12,07,18.90
2018,05,27,12,08,19.00
2018,05,27,12,09,19.00
2018,05,27,12,10,19.00
2018,05,27,12,11,19.00
2018,05,27,12,12,19.00
2018,05,27,12,13,19.00
2018,05,27,12,14,19.10
2018,05,27,12,15,19.10
2018,05,27,12,16,19.10
2018,05,27,12,17,19.20
2018,05,27,12,18,19.20
2018,05,27,12,19,19.20
2018,05,27,12,20,19.20
2018,05,27,12,21,19.20
2018,05,27,12,22,19.30
2018,05,27,12,23,19.30
2018,05,27,12,24,19.40
2018,05,27,12,25,19.40
2018,05,27,12,26,19.50
2018,05,27,12,27,19.70
2018,05,27,12,28,19.80
2018,05,27,12,29,19.90
2018,05,27,12,30,20.00
2018,05,27,12,31,20.10
2018,05,27,12,32,20.20
2018,05,27,12,33,20.40
2018,05,27,12,34,20.50
2018,05,27,12,35,20.70
2018,05,27,12,36,20.80
2018,05,27,12,37,20.80
2018,05,27,12,38,20.80
2018,05,27,12,39,20.80
2018,05,27,12,40,20.70
2018,05,27,12,41,20.60
2018,05,27,12,42,20.60
2018,05,27,12,43,20.60
2018,05,27,12,44,20.50
2018,05,27,12,45,20.40
2018,05,27,12,46,20.30
2018,05,27,12,47,20.20
2018,05,27,12,48,20.20
2018,05,27,12,49,20.10
2018,05,27,12,50,20.10
2018,05,27,12,51,20.10
2018,05,27,12,52,20.10
2018,05,27,12,53,20.10
2018,05,27,12,54,20.10
2018,05,27,12,55,20.10
2018,05,27,12,56,20.10
2018,05,27,12,57,20.10
2018,05,27,12,58,20.20
2018,05,27,12,59,20.30
2018,05,27,13,00,20.30
2018,05,27,13,01,20.30
2018,05,27,13,02,20.30
2018,05,27,13,03,20.30
2018,05,27,13,04,20.30
2018,05,27,13,05,20.30
2018,05,27,13,06,20.20
2018,05,27,13,07,20.10
2018,05,27,13,08,20.00
2018,05,27,13,09,20.00
2018,05,27,13,10,20.00
2018,05,27,13,11,19.90
2018,05,27,13,12,19.90
2018,05,27,13,13,19.80
2018,05,27,13,14,19.70
2018,05,27,13,15,19.70
2018,05,27,13,16,19.70
2018,05,27,13,17,19.80
2018,05,27,13,18,19.80
2018,05,27,13,19,19.90
2018,05,27,13,20,20.00
2018,05,27,13,21,20.10
2018,05,27,13,22,20.20
2018,05,27,13,23,20.20
2018,05,27,13,24,20.30
2018,05,27,13,25,20.40
2018,05,27,13,26,20.40
2018,05,27,13,27,20.40
2018,05,27,13,28,20.40
2018,05,27,13,29,20.50
2018,05,27,13,30,20.60
2018,05,27,13,31,20.70
2018,05,27,13,32,20.70
2018,05,27,13,33,20.80
2018,05,27,13,34,20.80
2018,05,27,13,35,20.90
2018,05,27,13,36,20.90
2018,05,27,13,37,20.90
2018,05,27,13,38,20.90
2018,05,27,13,39,20.90
2018,05,27,13,40,20.80
2018,05,27,13,41,20.60
2018,05,27,13,42,20.50
2018,05,27,13,43,20.40
2018,05,27,13,44,20.40
2018,05,27,13,45,20.40
2018,05,27,13,46,20.50
2018,05,27,13,47,20.60
2018,05,27,13,48,20.70
2018,05,27,13,49,20.70
2018,05,27,13,50,20.70
2018,05,27,13,51,20.70
2018,05,27,13,52,20.70
2018,05,27,13,53,20.80
2018,05,27,13,54,20.80
2018,05,27,13,55,20.80
2018,05,27,13,56,20.70
2018,05,27,13,57,20.70
2018,05,27,13,58,20.80
2018,05,27,13,59,20.80
2018,05,27,14,00,20.80
2018,05,27,14,01,20.90
2018,05,27,14,02,21.00
2018,05,27,14,03,21.00
2018,05,27,14,04,21.10
2018,05,27,14,05,21.10
2018,05,27,14,06,21.10
2018,05,27,14,07,21.00
2018,05,27,14,08,21.00
2018,05,27,14,09,21.00
2018,05,27,14,10,21.10
2018,05,27,14,11,21.20
2018,05,27,14,12,21.20
2018,05,27,14,13,21.20
2018,05,27,14,14,21.30
2018,05,27,14,15,21.30
2018,05,27,14,16,21.30
2018,05,27,14,17,21.30
2018,05,27,14,18,21.30
2018,05,27,14,19,21.30
2018,05,27,14,20,21.30
2018,05,27,14,21,21.30
2018,05,27,14,22,21.20
2018,05,27,14,23,21.20
2018,05,27,14,24,21.20
2018,05,27,14,25,21.20
2018,05,27,14,26,21.20
2018,05,27,14,27,21.20
2018,05,27,14,28,21.20
2018,05,27,14,29,21.20
2018,05,27,14,30,21.30
2018,05,27,14,31,21.30
2018,05,27,14,32,21.40
2018,05,27,14,33,21.40
2018,05,27,14,34,21.40
2018,05,27,14,35,21.50
2018,05,27,14,36,21.60
2018,05,27,14,37,21.60
2018,05,27,14,38,21.70
2018,05,27,14,39,21.70
2018,05,27,14,40,21.70
2018,05,27,14,41,21.80
2018,05,27,14,42,21.80
2018,05,27,14,43,21.70
2018,05,27,14,44,21.60
2018,05,27,14,45,21.60
2018,05,27,14,46,21.60
2018,05,27,14,47,21.70
2018,05,27,14,48,21.60
2018,05,27,14,49,21.60
2018,05,27,14,50,21.70
2018,05,27,14,51,21.70
2018,05,27,14,52,21.70
2018,05,27,14,53,21.80
2018,05,27,14,54,21.80
2018,05,27,14,55,21.80
2018,05,27,14,56,21.80
2018,05,27,14,57,21.70
2018,05,27,14,58,21.70
2018,05,27,14,59,21.80
2018,05,27,15,00,21.80
2018,05,27,15,01,21.90
2018,05,27,15,02,21.90
2018,05,27,15,03,22.00
2018,05,27,15,04,22.00
2018,05,27,15,05,22.00
2018,05,27,15,06,21.90
2018,05,27,15,07,22.00
2018,05,27,15,08,22.00
2018,05,27,15,09,22.00
2018,05,27,15,10,22.00
2018,05,27,15,11,22.10
2018,05,27,15,12,22.10
2018,05,27,15,13,22.10
2018,05,27,15,14,22.20
2018,05,27,15,15,22.10
2018,05,27,15,16,22.10
2018,05,27,15,17,22.20
2018,05,27,15,18,22.30
2018,05,27,15,19,22.40
2018,05,27,15,20,22.50
2018,05,27,15,21,22.60
2018,05,27,15,22,22.60
2018,05,27,15,23,22.60
2018,05,27,15,24,22.50
2018,05,27,15,25,22.40
2018,05,27,15,26,22.40
2018,05,27,15,27,22.40
2018,05,27,15,28,22.50
2018,05,27,15,29,22.60
2018,05,27,15,30,22.70
2018,05,27,15,31,22.50
2018,05,27,15,32,22.50
2018,05,27,15,33,22.40
2018,05,27,15,34,22.30
2018,05,27,15,35,22.20
2018,05,27,15,36,22.20
2018,05,27,15,37,22.20
2018,05,27,15,38,22.20
2018,05,27,15,39,22.20
2018,05,27,15,40,22.20
2018,05,27,15,41,22.20
2018,05,27,15,42,22.20
2018,05,27,15,43,22.20
2018,05,27,15,44,22.20
2018,05,27,15,45,22.20
2018,05,27,15,46,22.30
2018,05,27,15,47,22.30
2018,05,27,15,48,22.40
2018,05,27,15,49,22.40
2018,05,27,15,50,22.40
2018,05,27,15,51,22.40
2018,05,27,15,52,22.40
2018,05,27,15,53,22.50
2018,05,27,15,54,22.50
2018,05,27,15,55,22.50
2018,05,27,15,56,22.40
2018,05,27,15,57,22.40
2018,05,27,15,58,22.30
2018,05,27,15,59,22.30
2018,05,27,16,00,22.30
2018,05,27,16,01,22.20
2018,05,27,16,02,22.20
2018,05,27,16,03,22.20
2018,05,27,16,04,22.20
2018,05,27,16,05,22.20
2018,05,27,16,06,22.20
2018,05,27,16,07,22.20
2018,05,27,16,08,22.20
2018,05,27,16,09,22.20
2018,05,27,16,10,22.20
2018,05,27,16,11,22.20
2018,05,27,16,12,22.20
2018,05,27,16,13,22.30
2018,05,27,16,14,22.20
2018,05,27,16,15,22.20
2018,05,27,16,16,22.20
2018,05,27,16,17,22.20
2018,05,27,16,18,22.20
2018,05,27,16,19,22.20
2018,05,27,16,20,22.20
2018,05,27,16,21,22.20
2018,05,27,16,22,22.30
2018,05,27,16,23,22.30
2018,05,27,16,24,22.30
2018,05,27,16,25,22.20
2018,05,27,16,26,22.20
2018,05,27,16,27,22.20
2018,05,27,16,28,22.20
2018,05,27,16,29,22.30
2018,05,27,16,30,22.30
2018,05,27,16,31,22.30
2018,05,27,16,32,22.30
2018,05,27,16,33,22.30
2018,05,27,16,34,22.30
2018,05,27,16,35,22.30
2018,05,27,16,36,22.30
2018,05,27,16,37,22.30
2018,05,27,16,38,22.30
2018,05,27,16,39,22.30
2018,05,27,16,40,22.30
2018,05,27,16,41,22.40
2018,05,27,16,42,22.40
2018,05,27,16,43,22.30
2018,05,27,16,44,22.30
2018,05,27,16,45,22.30
2018,05,27,16,46,22.20
2018,05,27,16,47,22.20
2018,05,27,16,48,22.20
2018,05,27,16,49,22.20
2018,05,27,16,50,22.20
2018,05,27,16,51,22.10
2018,05,27,16,52,22.00
2018,05,27,16,53,21.90
2018,05,27,16,54,21.80
2018,05,27,16,55,21.80
2018,05,27,16,56,21.80
2018,05,27,16,57,21.80
2018,05,27,16,58,21.90
2018,05,27,16,59,21.90
2018,05,27,17,00,22.00
2018,05,27,17,01,22.00
2018,05,27,17,02,22.00
2018,05,27,17,03,21.90
2018,05,27,17,04,22.00
2018,05,27,17,05,22.00
2018,05,27,17,06,21.90
2018,05,27,17,07,21.90
2018,05,27,17,08,21.90
2018,05,27,17,09,21.90
2018,05,27,17,10,21.90
2018,05,27,17,11,21.90
2018,05,27,17,12,21.90
2018,05,27,17,13,21.90
2018,05,27,17,14,21.90
2018,05,27,17,15,22.00
2018,05,27,17,16,22.00
2018,05,27,17,17,21.90
2018,05,27,17,18,21.90
2018,05,27,17,19,21.80
2018,05,27,17,20,21.70
2018,05,27,17,21,21.60
2018,05,27,17,22,21.50
2018,05,27,17,23,21.40
2018,05,27,17,24,21.40
2018,05,27,17,25,21.40
2018,05,27,17,26,21.40
2018,05,27,17,27,21.40
2018,05,27,17,28,21.40
2018,05,27,17,29,21.40
2018,05,27,17,30,21.30
2018,05,27,17,31,21.30
2018,05,27,17,32,21.30
2018,05,27,17,33,21.30
2018,05,27,17,34,21.30
2018,05,27,17,35,21.30
2018,05,27,17,36,21.40
2018,05,27,17,37,21.40
2018,05,27,17,38,21.40